Overview Statistics Trail Chart Weather Telemetry Raw packets
 

This is the latest recevied weather packets stored in our database for station/object PY5AL-13. If no packets are shown the sender has not sent any weather packets the latest 10 day(s).

<< 1 2 3 4 5 6 >>
Time Temp. Humidity Pressure Rain* Wind** Luminosity Snow
1777810469 23.33° C 54% 1025.4 hPa - - - -
1777809269 23.33° C 53% 1025 hPa - - - -
1777808069 23.33° C 53% 1024.5 hPa - - - -
1777806869 23.33° C 55% 1024 hPa - - - -
1777805669 23.33° C 57% 1023.5 hPa - - - -
1777804469 23.33° C 58% 1023 hPa - - - -
1777803269 23.33° C 58% 1022.6 hPa - - - -
1777802069 22.78° C 59% 1022.3 hPa - - - -
1777800872 23.33° C 61% 1021.8 hPa - - - -
1777799669 23.33° C 61% 1021.5 hPa - - - -
1777798469 23.33° C 63% 1021.4 hPa - - - -
1777797270 23.33° C 63% 1020.9 hPa - - - -
1777796069 23.33° C 63% 1020.6 hPa - - - -
1777794869 23.33° C 65% 1020.4 hPa - - - -
1777793670 23.33° C 65% 1020.3 hPa - - - -
1777792470 23.33° C 65% 1020.3 hPa - - - -
1777791270 23.33° C 67% 1020.1 hPa - - - -
1777788853 23.33° C 66% 1020.2 hPa - - - -
1777787665 23.89° C 67% 1020.3 hPa - - - -
1777786453 23.89° C 67% 1020.3 hPa - - - -
1777785253 24.44° C 67% 1020.4 hPa - - - -
1777784053 23.89° C 68% 1020.6 hPa - - - -
1777782853 23.89° C 68% 1020.5 hPa - - - -
1777781653 23.89° C 69% 1020.4 hPa - - - -
1777780453 23.89° C 70% 1020.6 hPa - - - -

* Rain since midnight (hover to see other rain measurements)
** Current wind speed in m/s (hover to see current wind gust speed)